Home   Weather   Medan   Past weeks

Flag for Indonesia Past Weather in Medan, North Sumatra, Indonesia — Yesterday and Last 2 Weeks

Now
79 °F

Passing clouds.


Feels Like: 82 °F
Forecast: 77 / 89 °F
Wind: 5 mph from Southwest

Location: Medan / Polonia

Current Time: Apr 25, 2017 at 5:52:18 am

Latest Report: Apr 25, 2017 at 5:00 am


Visibility: 3 mi

Pressure: 29.80 "Hg

Humidity: 89%

Dew Point: 75 °F

Location of MedanLocation

Past Weather in Medan — Graph

°F

Medan Temperature Yesterday

Maximum temperature yesterday: 90 °F (at 11:30 am)
Minimum temperature yesterday: 77 °F (at 5:00 am)
Average temperature yesterday: 83 °F

High & Low Weather Summary for the Past Weeks

 TemperatureHumidityPressure
High91 °F (Apr 16, 12:30 pm)100% (Apr 10, 4:30 am)29.95 "Hg (Apr 10, 4:30 am)
Low73 °F (Apr 21, 7:00 am)56% (Apr 16, 12:30 pm)29.68 "Hg (Apr 10, 3:30 pm)
Average82 °F86%29.80 "Hg
* Reported Apr 10 4:00 am — Apr 25 4:30 am, Medan, Weather by CustomWeather, © 2017

Note: Actual official high and low records may vary slightly from our data, if they occured in-between our weather recording intervals... More about our weather records

Advertising

Medan Weather History for the Previous 24 Hours

Scroll right to see more
 ConditionsComfort  
Time TempWeatherWind HumidityBarometerVisibility
4:30 am
Tue, Apr 25
79 °FPassing clouds.5 mph89%29.80 "Hg3 mi
4:00 am79 °FPassing clouds.3 mph89%29.80 "Hg3 mi
3:30 am79 °FPassing clouds.5 mph89%29.80 "Hg3 mi
3:00 am77 °FPassing clouds.5 mph94%29.80 "Hg3 mi
2:30 am79 °FPassing clouds.5 mph89%29.80 "Hg3 mi
2:00 am79 °FPassing clouds.5 mph89%29.83 "Hg4 mi
1:30 am79 °FPassing clouds.No wind84%29.83 "Hg4 mi
1:00 am79 °FPassing clouds.3 mph84%29.86 "Hg4 mi
12:30 am81 °FPassing clouds.7 mph84%29.86 "HgN/A
12:00 am81 °FPassing clouds.8 mph89%29.86 "Hg3 mi
11:30 pm
Mon, Apr 24
81 °FPassing clouds.6 mph84%29.86 "Hg4 mi
11:00 pm81 °FPassing clouds.3 mph84%29.89 "Hg4 mi
9:00 pm84 °FPassing clouds.5 mph79%29.86 "Hg4 mi
8:30 pm84 °FPassing clouds.3 mph79%29.83 "Hg4 mi
8:00 pm84 °FPassing clouds.3 mph79%29.83 "Hg4 mi
7:30 pm84 °FPassing clouds.6 mph79%29.80 "Hg4 mi
7:00 pm84 °FPassing clouds.6 mph84%29.80 "Hg4 mi
6:30 pm84 °FPassing clouds.5 mph84%29.77 "Hg5 mi
6:00 pm86 °FScattered clouds.7 mph79%29.77 "HgN/A
5:30 pm86 °FScattered clouds.10 mph79%29.77 "HgN/A
5:00 pm86 °FScattered clouds.12 mph79%29.74 "HgN/A
4:30 pm86 °FScattered clouds.9 mph79%29.74 "HgN/A
4:00 pm88 °FScattered clouds.9 mph75%29.74 "HgN/A
3:30 pm86 °FScattered clouds.7 mph79%29.77 "HgN/A
3:00 pm86 °FScattered clouds.8 mph79%29.77 "HgN/A
2:30 pm86 °FScattered clouds.5 mph79%29.77 "HgN/A
2:00 pm86 °FScattered clouds.7 mph79%29.80 "HgN/A
1:30 pm88 °FScattered clouds.7 mph75%29.83 "HgN/A
1:00 pm88 °FScattered clouds.5 mph75%29.83 "HgN/A
12:30 pm90 °FScattered clouds.9 mph67%29.86 "HgN/A
12:00 pm90 °FScattered clouds.5 mph67%29.86 "HgN/A
11:30 am90 °FScattered clouds.7 mph63%29.89 "HgN/A
10:30 am88 °FScattered clouds.6 mph62%29.89 "HgN/A
10:00 am86 °FScattered clouds.No wind75%29.89 "HgN/A
9:30 am84 °FScattered clouds.No wind79%29.89 "Hg6 mi
9:00 am82 °FScattered clouds.No wind84%29.89 "Hg4 mi
8:30 am82 °FScattered clouds.No wind79%29.89 "Hg4 mi
8:00 am79 °FScattered clouds.No wind94%29.86 "Hg3 mi
7:30 am79 °FHaze.5 mph94%29.83 "Hg2 mi
7:00 am79 °FHaze.3 mph94%29.83 "Hg2 mi
6:30 am79 °FScattered clouds.No wind94%29.83 "Hg2 mi
6:00 am79 °FPassing clouds.No wind89%29.80 "Hg4 mi
5:30 am77 °FFog.No wind100%29.80 "Hg3 mi
5:00 am77 °FFog.No wind100%29.80 "Hg3 mi
Weather by CustomWeather, © 2017

See weather overviewHow to use our weather pages